Total_Precipitation_Accumulation
0.40 0.41 0.28 0.18 0.15 0.18 0.17 0.15 0.19 0.26 0.30 0.26 0.27 0.36 0.35 0.38 0.46 0.55 0.68 0.78 0.73 0.68 0.61 0.60 0.69 0.76 0.92 0.98 0.93 0.82 0.75 0.68 0.60 0.49 0.27 0.15 0.10 0.07 0.05 0.02 0.01 0.00 0.00
0.34 0.33 0.24 0.17 0.16 0.19 0.21 0.13 0.12 0.16 0.17 0.17 0.21 0.27 0.30 0.35 0.41 0.51 0.61 0.68 0.70 0.62 0.56 0.52 0.56 0.63 0.78 0.91 1.01 0.91 0.83 0.75 0.72 0.65 0.40 0.24 0.17 0.13 0.09 0.04 0.02 0.01 0.00
0.35 0.31 0.24 0.18 0.19 0.19 0.17 0.13 0.09 0.09 0.11 0.15 0.19 0.24 0.27 0.30 0.38 0.43 0.47 0.49 0.44 0.42 0.42 0.41 0.46 0.51 0.58 0.71 0.83 0.91 0.86 0.77 0.78 0.80 0.63 0.40 0.26 0.17 0.12 0.07 0.03 0.02 0.02
0.53 0.46 0.37 0.28 0.25 0.22 0.18 0.13 0.10 0.08 0.08 0.10 0.14 0.16 0.20 0.24 0.28 0.31 0.33 0.38 0.34 0.27 0.24 0.24 0.29 0.32 0.38 0.49 0.61 0.72 0.82 0.83 0.84 0.86 0.78 0.55 0.38 0.26 0.16 0.11 0.09 0.05 0.02
0.69 0.63 0.52 0.47 0.37 0.28 0.23 0.17 0.14 0.11 0.11 0.11 0.17 0.22 0.25 0.26 0.29 0.31 0.27 0.32 0.32 0.28 0.23 0.21 0.18 0.19 0.24 0.32 0.43 0.60 0.71 0.79 0.84 0.87 0.83 0.70 0.53 0.38 0.25 0.18 0.13 0.10 0.06
0.68 0.68 0.65 0.57 0.44 0.37 0.29 0.21 0.17 0.15 0.15 0.16 0.19 0.24 0.31 0.29 0.37 0.38 0.33 0.32 0.31 0.25 0.21 0.23 0.25 0.23 0.17 0.15 0.18 0.30 0.43 0.58 0.69 0.74 0.76 0.67 0.55 0.47 0.40 0.30 0.19 0.11 0.07
0.59 0.61 0.61 0.55 0.40 0.34 0.26 0.21 0.19 0.18 0.19 0.21 0.23 0.27 0.35 0.44 0.43 0.34 0.37 0.35 0.31 0.25 0.19 0.19 0.23 0.24 0.29 0.25 0.20 0.18 0.19 0.29 0.44 0.57 0.61 0.61 0.66 0.54 0.42 0.32 0.24 0.18 0.13
0.45 0.48 0.46 0.45 0.39 0.31 0.23 0.23 0.22 0.21 0.23 0.24 0.25 0.27 0.31 0.41 0.39 0.34 0.45 0.43 0.40 0.36 0.28 0.23 0.23 0.22 0.24 0.34 0.39 0.32 0.27 0.29 0.42 0.34 0.35 0.54 0.60 0.54 0.44 0.35 0.32 0.26 0.19
0.30 0.36 0.39 0.39 0.35 0.30 0.24 0.30 0.35 0.32 0.28 0.27 0.25 0.26 0.30 0.34 0.37 0.31 0.35 0.41 0.45 0.41 0.33 0.28 0.27 0.27 0.35 0.39 0.39 0.37 0.35 0.35 0.56 0.59 0.56 0.52 0.48 0.41 0.38 0.39 0.33 0.26 0.21
0.19 0.24 0.27 0.30 0.33 0.37 0.45 0.51 0.51 0.46 0.38 0.33 0.30 0.27 0.30 0.30 0.39 0.25 0.28 0.34 0.42 0.47 0.41 0.33 0.41 0.39 0.39 0.32 0.25 0.30 0.33 0.37 0.41 0.42 0.42 0.39 0.33 0.29 0.28 0.29 0.33 0.30 0.24
0.04 0.09 0.18 0.28 0.34 0.44 0.55 0.57 0.55 0.48 0.39 0.34 0.32 0.30 0.30 0.37 0.50 0.39 0.36 0.38 0.38 0.43 0.45 0.44 0.42 0.48 0.36 0.27 0.24 0.27 0.36 0.43 0.42 0.43 0.42 0.35 0.25 0.22 0.22 0.23 0.25 0.27 0.26
0.03 0.07 0.12 0.20 0.29 0.42 0.51 0.49 0.48 0.45 0.42 0.38 0.38 0.35 0.37 0.46 0.52 0.49 0.45 0.45 0.40 0.41 0.43 0.38 0.35 0.37 0.28 0.23 0.20 0.25 0.28 0.31 0.30 0.34 0.37 0.35 0.29 0.25 0.22 0.20 0.20 0.20 0.19
0.01 0.02 0.06 0.11 0.22 0.36 0.39 0.38 0.42 0.44 0.42 0.40 0.39 0.37 0.35 0.40 0.48 0.54 0.44 0.35 0.28 0.32 0.34 0.30 0.26 0.23 0.20 0.16 0.17 0.19 0.19 0.23 0.28 0.33 0.32 0.32 0.34 0.32 0.28 0.24 0.18 0.15 0.15
0.00 0.00 0.01 0.02 0.05 0.10 0.15 0.19 0.26 0.31 0.32 0.31 0.33 0.37 0.40 0.40 0.38 0.39 0.37 0.31 0.25 0.23 0.19 0.13 0.12 0.14 0.15 0.16 0.18 0.16 0.18 0.31 0.40 0.43 0.41 0.37 0.38 0.36 0.34 0.30 0.28 0.25 0.23
0.00 0.00 0.01 0.02 0.02 0.03 0.05 0.09 0.12 0.15 0.19 0.24 0.29 0.33 0.34 0.37 0.35 0.34 0.34 0.34 0.37 0.38 0.33 0.21 0.15 0.14 0.13 0.15 0.18 0.22 0.31 0.39 0.45 0.42 0.40 0.37 0.36 0.38 0.37 0.35 0.33 0.32 0.31
0.00 0.00 0.00 0.00 0.01 0.01 0.02 0.02 0.04 0.06 0.09 0.11 0.15 0.17 0.18 0.24 0.30 0.30 0.32 0.33 0.33 0.33 0.34 0.34 0.33 0.32 0.30 0.27 0.25 0.24 0.26 0.32 0.38 0.43 0.42 0.38 0.33 0.32 0.32 0.31 0.31 0.31 0.30
0.00 0.00 0.00 0.00 0.01 0.01 0.02 0.03 0.03 0.02 0.02 0.03 0.05 0.08 0.11 0.11 0.14 0.20 0.25 0.30 0.30 0.31 0.32 0.35 0.36 0.36 0.33 0.29 0.24 0.21 0.19 0.21 0.27 0.35 0.41 0.44 0.44 0.40 0.35 0.30 0.25 0.24 0.24
0.00 0.00 0.01 0.05 0.07 0.04 0.04 0.07 0.09 0.10 0.07 0.02 0.02 0.03 0.04 0.05 0.04 0.05 0.08 0.13 0.16 0.18 0.23 0.26 0.26 0.25 0.23 0.22 0.18 0.15 0.15 0.14 0.16 0.19 0.26 0.34 0.44 0.51 0.50 0.44 0.41 0.37 0.32
0.00 0.01 0.02 0.06 0.07 0.08 0.11 0.12 0.11 0.11 0.09 0.05 0.02 0.01 0.01 0.02 0.02 0.02 0.03 0.05 0.06 0.06 0.08 0.10 0.10 0.11 0.13 0.13 0.10 0.09 0.10 0.12 0.14 0.14 0.15 0.18 0.24 0.33 0.42 0.48 0.51 0.55 0.52
0.00 0.00 0.01 0.03 0.04 0.06 0.08 0.09 0.08 0.07 0.06 0.04 0.03 0.02 0.02 0.02 0.02 0.02 0.02 0.03 0.03 0.03 0.03 0.04 0.04 0.05 0.06 0.07 0.06 0.05 0.04 0.06 0.08 0.09 0.10 0.12 0.14 0.17 0.23 0.31 0.36 0.39 0.41
0.00 0.00 0.00 0.01 0.03 0.03 0.03 0.03 0.04 0.04 0.03 0.02 0.02 0.01 0.02 0.04 0.05 0.04 0.03 0.03 0.03 0.03 0.03 0.03 0.03 0.04 0.05 0.06 0.10 0.12 0.09 0.06 0.07 0.08 0.09 0.10 0.10 0.12 0.14 0.19 0.23 0.26 0.30
0.00 0.00 0.01 0.02 0.04 0.03 0.02 0.02 0.03 0.04 0.03 0.02 0.02 0.01 0.01 0.04 0.05 0.05 0.04 0.03 0.03 0.03 0.03 0.03 0.03 0.04 0.05 0.06 0.10 0.15 0.17 0.14 0.11 0.09 0.09 0.11 0.11 0.12 0.13 0.15 0.16 0.18 0.19
0.00 0.00 0.01 0.02 0.03 0.01 0.01 0.03 0.03 0.03 0.02 0.02 0.02 0.02 0.02 0.04 0.03 0.03 0.03 0.04 0.05 0.06 0.06 0.05 0.04 0.05 0.05 0.07 0.08 0.09 0.10 0.13 0.15 0.15 0.13 0.13 0.14 0.15 0.16 0.16 0.17 0.18 0.19
0.00 0.00 0.01 0.02 0.02 0.02 0.02 0.03 0.03 0.02 0.02 0.02 0.02 0.03 0.04 0.05 0.04 0.03 0.03 0.04 0.05 0.05 0.06 0.05 0.04 0.04 0.05 0.06 0.07 0.08 0.10 0.10 0.09 0.08 0.09 0.10 0.10 0.11 0.14 0.16 0.17 0.19 0.21
0.00 0.00 0.01 0.01 0.01 0.02 0.02 0.03 0.03 0.02 0.02 0.02 0.02 0.02 0.03 0.04 0.04 0.03 0.03 0.03 0.03 0.03 0.03 0.03 0.03 0.05 0.08 0.09 0.09 0.12 0.18 0.17 0.12 0.09 0.09 0.10 0.11 0.13 0.15 0.19 0.23 0.25 0.27
0.00 0.00 0.01 0.01 0.01 0.01 0.02 0.03 0.04 0.04 0.03 0.02 0.03 0.03 0.04 0.03 0.03 0.03 0.03 0.02 0.02 0.02 0.02 0.03 0.03 0.05 0.08 0.09 0.09 0.11 0.14 0.13 0.13 0.12 0.08 0.08 0.10 0.14 0.19 0.21 0.24 0.28 0.33